Time,TemperatureF,DewpointF,PressureIn,WindDirection,WindDirectionDegrees,WindSpeedMPH,WindSpeedGustMPH,Humidity,HourlyPrecipIn,Conditions,Clouds,dailyrainin,SoftwareType,DateUTC
2013-08-31 00:02:00,43.2,20.5,24.48,North,357,0.0,0.0,40,0.00,,,0.00,VWS V14.01,2013-08-31 06:02:00,
2013-08-31 00:07:00,42.6,20.6,24.48,North,357,0.0,0.0,41,0.00,,,0.00,VWS V14.01,2013-08-31 06:07:00,
2013-08-31 00:12:00,42.4,21.0,24.48,North,357,0.0,0.0,42,0.00,,,0.00,VWS V14.01,2013-08-31 06:12:00,
2013-08-31 00:17:00,42.6,20.6,24.48,North,357,0.0,0.0,41,0.00,,,0.00,VWS V14.01,2013-08-31 06:17:00,
2013-08-31 00:22:00,42.6,20.6,24.48,North,357,0.0,0.0,41,0.00,,,0.00,VWS V14.01,2013-08-31 06:22:00,
2013-08-31 00:27:00,42.3,20.8,24.48,North,357,0.0,0.0,42,0.00,,,0.00,VWS V14.01,2013-08-31 06:27:00,
2013-08-31 00:32:00,41.7,21.4,24.48,North,357,0.0,0.0,44,0.00,,,0.00,VWS V14.01,2013-08-31 06:32:00,
2013-08-31 00:37:00,41.5,21.3,24.48,North,357,0.0,0.0,44,0.00,,,0.00,VWS V14.01,2013-08-31 06:37:00,
2013-08-31 00:42:00,41.2,20.4,24.48,North,357,0.0,0.0,43,0.00,,,0.00,VWS V14.01,2013-08-31 06:42:00,
2013-08-31 00:47:00,41.4,20.6,24.48,North,357,0.0,0.0,43,0.00,,,0.00,VWS V14.01,2013-08-31 06:47:00,
2013-08-31 00:52:00,41.4,20.6,24.48,NNE,24,0.0,0.0,43,0.00,,,0.00,VWS V14.01,2013-08-31 06:52:00,
2013-08-31 00:57:00,41.5,20.7,24.48,NNE,24,0.0,0.0,43,0.00,,,0.00,VWS V14.01,2013-08-31 06:57:00,
2013-08-31 01:02:00,41.4,20.6,24.48,NNE,24,0.0,0.0,43,0.00,,,0.00,VWS V14.01,2013-08-31 07:02:00,
2013-08-31 01:07:00,41.2,20.9,24.45,NNE,16,0.0,0.0,44,0.00,,,0.00,VWS V14.01,2013-08-31 07:07:00,
2013-08-31 01:12:00,40.8,22.2,24.45,NNE,16,0.0,0.0,47,0.00,,,0.00,VWS V14.01,2013-08-31 07:12:00,
2013-08-31 01:17:00,41.0,22.8,24.45,NNE,16,0.0,0.0,48,0.00,,,0.00,VWS V14.01,2013-08-31 07:17:00,
2013-08-31 01:22:00,41.5,22.8,24.45,NNE,16,0.0,0.0,47,0.00,,,0.00,VWS V14.01,2013-08-31 07:22:00,
2013-08-31 01:27:00,41.5,22.8,24.45,NNE,16,0.0,0.0,47,0.00,,,0.00,VWS V14.01,2013-08-31 07:27:00,
2013-08-31 01:32:00,41.4,22.7,24.48,NNE,16,0.0,0.0,47,0.00,,,0.00,VWS V14.01,2013-08-31 07:32:00,
2013-08-31 01:37:00,41.0,22.8,24.48,NNE,16,0.0,0.0,48,0.00,,,0.00,VWS V14.01,2013-08-31 07:37:00,
2013-08-31 01:42:00,40.6,23.5,24.48,NNE,16,0.0,0.0,50,0.00,,,0.00,VWS V14.01,2013-08-31 07:42:00,
2013-08-31 01:47:00,40.8,23.1,24.45,NNE,16,0.0,0.0,49,0.00,,,0.00,VWS V14.01,2013-08-31 07:47:00,
2013-08-31 01:52:00,41.0,22.8,24.45,NNE,16,0.0,0.0,48,0.00,,,0.00,VWS V14.01,2013-08-31 07:52:00,
2013-08-31 01:57:00,41.2,23.0,24.45,NNE,16,0.0,0.0,48,0.00,,,0.00,VWS V14.01,2013-08-31 07:57:00,
2013-08-31 02:02:00,41.2,22.5,24.45,NNE,16,0.0,0.0,47,0.00,,,0.00,VWS V14.01,2013-08-31 08:02:00,
2013-08-31 02:07:00,41.2,23.0,24.45,NNE,16,0.0,0.0,48,0.00,,,0.00,VWS V14.01,2013-08-31 08:07:00,
2013-08-31 02:12:00,41.2,23.0,24.45,NNE,15,0.0,0.0,48,0.00,,,0.00,VWS V14.01,2013-08-31 08:12:00,
2013-08-31 02:17:00,40.5,21.3,24.48,NNE,13,0.0,0.0,46,0.00,,,0.00,VWS V14.01,2013-08-31 08:17:00,
2013-08-31 02:22:00,40.6,22.0,24.48,NNE,13,0.0,0.0,47,0.00,,,0.00,VWS V14.01,2013-08-31 08:22:00,
2013-08-31 02:27:00,40.8,21.1,24.48,NE,35,0.0,0.0,45,0.00,,,0.00,VWS V14.01,2013-08-31 08:27:00,
2013-08-31 02:32:00,40.8,23.1,24.45,ENE,77,0.0,0.0,49,0.00,,,0.00,VWS V14.01,2013-08-31 08:32:00,
2013-08-31 02:37:00,41.0,22.3,24.45,ENE,77,0.0,0.0,47,0.00,,,0.00,VWS V14.01,2013-08-31 08:37:00,
2013-08-31 02:42:00,40.6,22.0,24.45,North,9,0.0,0.0,47,0.00,,,0.00,VWS V14.01,2013-08-31 08:42:00,
2013-08-31 02:47:00,40.3,23.1,24.45,North,9,0.0,0.0,50,0.00,,,0.00,VWS V14.01,2013-08-31 08:47:00,
2013-08-31 02:52:00,39.9,22.8,24.45,North,9,0.0,0.0,50,0.00,,,0.00,VWS V14.01,2013-08-31 08:52:00,
2013-08-31 02:57:00,39.9,23.7,24.45,North,9,0.0,0.0,52,0.00,,,0.00,VWS V14.01,2013-08-31 08:57:00,
2013-08-31 03:02:00,39.9,23.7,24.45,North,9,0.0,0.0,52,0.00,,,0.00,VWS V14.01,2013-08-31 09:02:00,
2013-08-31 03:07:00,40.3,24.5,24.45,North,9,0.0,0.0,53,0.00,,,0.00,VWS V14.01,2013-08-31 09:07:00,
2013-08-31 03:12:00,39.7,23.1,24.45,North,9,0.0,0.0,51,0.00,,,0.00,VWS V14.01,2013-08-31 09:12:00,
2013-08-31 03:17:00,39.6,24.7,24.45,NNE,15,0.0,0.0,55,0.00,,,0.00,VWS V14.01,2013-08-31 09:17:00,
2013-08-31 03:22:00,39.6,26.0,24.45,NNE,26,0.0,0.0,58,0.00,,,0.00,VWS V14.01,2013-08-31 09:22:00,
2013-08-31 03:27:00,39.6,24.7,24.45,North,0,0.0,0.0,55,0.00,,,0.00,VWS V14.01,2013-08-31 09:27:00,
2013-08-31 03:32:00,39.9,23.3,24.42,NNE,12,0.0,0.0,51,0.00,,,0.00,VWS V14.01,2013-08-31 09:32:00,
2013-08-31 03:37:00,40.5,22.8,24.42,NNE,25,0.0,0.0,49,0.00,,,0.00,VWS V14.01,2013-08-31 09:37:00,
2013-08-31 03:42:00,40.5,22.8,24.42,East,90,0.0,0.0,49,0.00,,,0.00,VWS V14.01,2013-08-31 09:42:00,
2013-08-31 03:47:00,41.0,24.7,24.48,NNE,19,0.0,0.0,52,0.00,,,0.00,VWS V14.01,2013-08-31 09:47:00,
2013-08-31 03:52:00,41.5,26.6,24.48,ENE,74,0.0,0.0,55,0.00,,,0.00,VWS V14.01,2013-08-31 09:52:00,
2013-08-31 03:57:00,41.2,25.4,24.48,SW,227,0.0,0.0,53,0.00,,,0.00,VWS V14.01,2013-08-31 09:57:00,
2013-08-31 04:02:00,40.5,23.8,24.48,WNW,287,0.0,0.0,51,0.00,,,0.00,VWS V14.01,2013-08-31 10:02:00,
2013-08-31 04:07:00,40.1,24.4,24.48,NW,310,0.0,0.0,53,0.00,,,0.00,VWS V14.01,2013-08-31 10:07:00,
2013-08-31 04:12:00,39.6,24.3,24.48,WNW,295,0.0,0.0,54,0.00,,,0.00,VWS V14.01,2013-08-31 10:12:00,
2013-08-31 04:17:00,39.7,24.9,24.48,WNW,300,0.0,0.0,55,0.00,,,0.00,VWS V14.01,2013-08-31 10:17:00,
2013-08-31 04:22:00,39.9,24.2,24.45,WNW,303,0.0,0.0,53,0.00,,,0.00,VWS V14.01,2013-08-31 10:22:00,
2013-08-31 04:27:00,40.1,23.9,24.45,NE,50,0.0,0.0,52,0.00,,,0.00,VWS V14.01,2013-08-31 10:27:00,
2013-08-31 04:32:00,39.9,23.3,24.48,NE,55,0.0,0.0,51,0.00,,,0.00,VWS V14.01,2013-08-31 10:32:00,
2013-08-31 04:37:00,39.9,22.8,24.48,North,9,0.0,0.0,50,0.00,,,0.00,VWS V14.01,2013-08-31 10:37:00,
2013-08-31 04:42:00,39.7,22.6,24.48,NNW,340,0.0,0.0,50,0.00,,,0.00,VWS V14.01,2013-08-31 10:42:00,
2013-08-31 04:47:00,39.7,26.2,24.48,NNW,348,0.0,0.0,58,0.00,,,0.00,VWS V14.01,2013-08-31 10:47:00,
2013-08-31 04:52:00,39.2,26.1,24.48,NNW,343,0.0,0.0,59,0.00,,,0.00,VWS V14.01,2013-08-31 10:52:00,
2013-08-31 04:57:00,38.8,26.2,24.48,NNW,343,0.0,0.0,60,0.00,,,0.00,VWS V14.01,2013-08-31 10:57:00,
2013-08-31 05:02:00,38.7,26.8,24.48,NNW,343,0.0,0.0,62,0.00,,,0.00,VWS V14.01,2013-08-31 11:02:00,
2013-08-31 05:07:00,38.5,26.6,24.48,NNW,343,0.0,0.0,62,0.00,,,0.00,VWS V14.01,2013-08-31 11:07:00,
2013-08-31 05:12:00,38.3,27.2,24.48,NNW,343,0.0,0.0,64,0.00,,,0.00,VWS V14.01,2013-08-31 11:12:00,
2013-08-31 05:17:00,38.1,27.0,24.48,NNW,343,0.0,0.0,64,0.00,,,0.00,VWS V14.01,2013-08-31 11:17:00,
2013-08-31 05:22:00,38.1,26.6,24.48,NNW,343,0.0,0.0,63,0.00,,,0.00,VWS V14.01,2013-08-31 11:22:00,
2013-08-31 05:27:00,37.9,26.5,24.48,NNW,343,0.0,0.0,63,0.00,,,0.00,VWS V14.01,2013-08-31 11:27:00,
2013-08-31 05:32:00,37.6,26.1,24.48,NNW,343,0.0,0.0,63,0.00,,,0.00,VWS V14.01,2013-08-31 11:32:00,
2013-08-31 05:37:00,37.4,26.7,24.48,NNW,343,0.0,0.0,65,0.00,,,0.00,VWS V14.01,2013-08-31 11:37:00,
2013-08-31 05:42:00,37.6,27.3,24.48,NNW,343,0.0,0.0,66,0.00,,,0.00,VWS V14.01,2013-08-31 11:42:00,
2013-08-31 05:47:00,37.9,27.6,24.48,NNW,343,0.0,0.0,66,0.00,,,0.00,VWS V14.01,2013-08-31 11:47:00,
2013-08-31 05:52:00,38.3,28.0,24.48,NNW,343,0.0,0.0,66,0.00,,,0.00,VWS V14.01,2013-08-31 11:52:00,
2013-08-31 05:57:00,38.7,28.3,24.48,NNW,343,0.0,0.0,66,0.00,,,0.00,VWS V14.01,2013-08-31 11:57:00,
2013-08-31 06:02:00,39.2,29.2,24.48,NNW,343,0.0,0.0,67,0.00,,,0.00,VWS V14.01,2013-08-31 12:02:00,
2013-08-31 06:07:00,39.9,29.9,24.48,NNW,343,0.0,0.0,67,0.00,,,0.00,VWS V14.01,2013-08-31 12:07:00,
2013-08-31 06:11:00,40.6,30.9,24.48,North,357,0.0,0.0,68,0.00,,,0.00,VWS V14.01,2013-08-31 12:11:00,
2013-08-31 06:16:00,40.6,31.3,24.48,North,357,0.0,0.0,69,0.00,,,0.00,VWS V14.01,2013-08-31 12:16:00,
2013-08-31 06:21:00,41.0,31.3,24.48,North,357,0.0,0.0,68,0.00,,,0.00,VWS V14.01,2013-08-31 12:21:00,
2013-08-31 06:26:00,41.2,31.4,24.48,North,357,0.0,0.0,68,0.00,,,0.00,VWS V14.01,2013-08-31 12:26:00,
2013-08-31 06:31:00,41.2,31.1,24.48,North,357,0.0,0.0,67,0.00,,,0.00,VWS V14.01,2013-08-31 12:31:00,
2013-08-31 06:36:00,41.5,31.4,24.51,North,357,0.0,0.0,67,0.00,,,0.00,VWS V14.01,2013-08-31 12:36:00,
2013-08-31 06:41:00,41.7,31.6,24.51,North,357,0.0,0.0,67,0.00,,,0.00,VWS V14.01,2013-08-31 12:41:00,
2013-08-31 06:46:00,42.1,32.3,24.48,North,0,0.0,0.0,68,0.00,,,0.00,VWS V14.01,2013-08-31 12:46:00,
2013-08-31 06:51:00,43.3,33.9,24.48,South,191,0.0,0.0,69,0.00,,,0.00,VWS V14.01,2013-08-31 12:51:00,
2013-08-31 06:56:00,44.6,35.1,24.48,SW,220,0.0,0.0,69,0.00,,,0.00,VWS V14.01,2013-08-31 12:56:00,
2013-08-31 07:01:00,45.7,32.2,24.48,SW,229,0.0,0.0,59,0.00,,,0.00,VWS V14.01,2013-08-31 13:01:00,
2013-08-31 07:06:00,45.9,30.2,24.48,SSW,213,0.0,0.0,54,0.00,,,0.00,VWS V14.01,2013-08-31 13:06:00,
2013-08-31 07:11:00,46.0,29.4,24.48,SSW,192,0.0,0.0,52,0.00,,,0.00,VWS V14.01,2013-08-31 13:11:00,
2013-08-31 07:16:00,46.4,30.2,24.48,SW,220,0.0,0.0,53,0.00,,,0.00,VWS V14.01,2013-08-31 13:16:00,
2013-08-31 07:21:00,46.8,30.1,24.51,SSW,207,0.0,0.0,52,0.00,,,0.00,VWS V14.01,2013-08-31 13:21:00,
2013-08-31 07:26:00,47.5,29.3,24.51,South,191,0.0,0.0,49,0.00,,,0.00,VWS V14.01,2013-08-31 13:26:00,
2013-08-31 07:31:00,48.0,29.3,24.51,South,171,0.0,0.0,48,0.00,,,0.00,VWS V14.01,2013-08-31 13:31:00,
2013-08-31 07:36:00,48.6,28.2,24.51,SSW,205,0.0,0.0,45,0.00,,,0.00,VWS V14.01,2013-08-31 13:36:00,
2013-08-31 07:41:00,49.1,26.4,24.51,SSW,211,0.0,0.0,41,0.00,,,0.00,VWS V14.01,2013-08-31 13:41:00,
2013-08-31 07:46:00,49.3,26.6,24.51,South,177,0.0,0.0,41,0.00,,,0.00,VWS V14.01,2013-08-31 13:46:00,
2013-08-31 07:51:00,49.1,25.8,24.51,South,181,0.0,0.0,40,0.00,,,0.00,VWS V14.01,2013-08-31 13:51:00,
2013-08-31 07:56:00,49.3,26.0,24.51,South,184,0.0,0.0,40,0.00,,,0.00,VWS V14.01,2013-08-31 13:56:00,
2013-08-31 08:01:00,49.5,26.8,24.51,SSE,162,0.0,0.0,41,0.00,,,0.00,VWS V14.01,2013-08-31 14:01:00,
2013-08-31 08:06:00,49.5,26.2,24.48,SSW,198,0.0,0.0,40,0.00,,,0.00,VWS V14.01,2013-08-31 14:06:00,
2013-08-31 08:11:00,50.0,26.0,24.48,SSW,193,0.0,0.0,39,0.00,,,0.00,VWS V14.01,2013-08-31 14:11:00,
2013-08-31 08:16:00,50.9,24.9,24.48,SSW,200,0.0,0.0,36,0.00,,,0.00,VWS V14.01,2013-08-31 14:16:00,
2013-08-31 08:21:00,51.3,25.2,24.48,SW,224,0.0,0.0,36,0.00,,,0.00,VWS V14.01,2013-08-31 14:21:00,
2013-08-31 08:26:00,51.6,25.6,24.48,SSW,202,0.0,0.0,36,0.00,,,0.00,VWS V14.01,2013-08-31 14:26:00,
2013-08-31 08:31:00,52.2,26.0,24.48,South,181,0.0,0.0,36,0.00,,,0.00,VWS V14.01,2013-08-31 14:31:00,
2013-08-31 08:36:00,52.7,25.1,24.48,South,181,0.0,0.0,34,0.00,,,0.00,VWS V14.01,2013-08-31 14:36:00,
2013-08-31 08:41:00,53.1,23.2,24.48,SSW,197,0.0,0.0,31,0.00,,,0.00,VWS V14.01,2013-08-31 14:41:00,
2013-08-31 08:46:00,53.6,21.3,24.48,SSW,204,0.0,0.0,28,0.00,,,0.00,VWS V14.01,2013-08-31 14:46:00,
2013-08-31 08:51:00,54.1,23.4,24.51,SSW,193,0.0,0.0,30,0.00,,,0.00,VWS V14.01,2013-08-31 14:51:00,
2013-08-31 08:56:00,54.5,22.1,24.51,SW,228,0.0,0.0,28,0.00,,,0.00,VWS V14.01,2013-08-31 14:56:00,
2013-08-31 09:01:00,55.0,20.8,24.51,South,185,0.0,0.0,26,0.00,,,0.00,VWS V14.01,2013-08-31 15:01:00,
2013-08-31 09:06:00,55.4,22.0,24.51,SSW,194,0.0,0.0,27,0.00,,,0.00,VWS V14.01,2013-08-31 15:06:00,
2013-08-31 09:11:00,55.9,21.6,24.51,SSE,154,0.0,0.0,26,0.00,,,0.00,VWS V14.01,2013-08-31 15:11:00,
2013-08-31 09:16:00,56.7,21.3,24.51,WSW,244,0.0,0.0,25,0.00,,,0.00,VWS V14.01,2013-08-31 15:16:00,
2013-08-31 09:21:00,56.7,21.3,24.54,SSW,193,0.0,0.0,25,0.00,,,0.00,VWS V14.01,2013-08-31 15:21:00,
2013-08-31 09:26:00,56.8,21.4,24.54,South,181,0.0,0.0,25,0.00,,,0.00,VWS V14.01,2013-08-31 15:26:00,
2013-08-31 09:31:00,57.2,18.7,24.54,South,191,0.0,0.0,22,0.00,,,0.00,VWS V14.01,2013-08-31 15:31:00,
2013-08-31 09:36:00,57.6,15.6,24.54,SSW,205,0.0,0.0,19,0.00,,,0.00,VWS V14.01,2013-08-31 15:36:00,
2013-08-31 09:41:00,58.1,16.1,24.54,SSW,195,0.0,0.0,19,0.00,,,0.00,VWS V14.01,2013-08-31 15:41:00,
2013-08-31 09:46:00,58.8,20.1,24.54,SSW,204,0.0,0.0,22,0.00,,,0.00,VWS V14.01,2013-08-31 15:46:00,
2013-08-31 09:51:00,59.2,14.4,24.51,SSW,198,0.0,0.0,17,0.00,,,0.00,VWS V14.01,2013-08-31 15:51:00,
2013-08-31 09:56:00,59.7,14.9,24.51,South,184,0.0,0.0,17,0.00,,,0.00,VWS V14.01,2013-08-31 15:56:00,
2013-08-31 10:01:00,60.4,15.4,24.51,SSE,160,0.0,0.0,17,0.00,,,0.00,VWS V14.01,2013-08-31 16:01:00,
2013-08-31 10:06:00,60.8,14.4,24.51,South,190,0.0,0.0,16,0.00,,,0.00,VWS V14.01,2013-08-31 16:06:00,
2013-08-31 10:11:00,61.2,11.6,24.51,SSW,208,0.0,0.0,14,0.00,,,0.00,VWS V14.01,2013-08-31 16:11:00,
2013-08-31 10:16:00,61.0,11.5,24.51,South,182,0.0,0.0,14,0.00,,,0.00,VWS V14.01,2013-08-31 16:16:00,
2013-08-31 10:21:00,62.1,12.3,24.51,SSW,200,0.0,0.0,14,0.00,,,0.00,VWS V14.01,2013-08-31 16:21:00,
2013-08-31 10:26:00,63.0,11.4,24.51,SSW,212,0.0,0.0,13,0.00,,,0.00,VWS V14.01,2013-08-31 16:26:00,
2013-08-31 10:31:00,63.5,11.8,24.51,South,187,0.0,0.0,13,0.00,,,0.00,VWS V14.01,2013-08-31 16:31:00,
2013-08-31 10:36:00,63.5,11.8,24.51,SSW,202,0.0,0.0,13,0.00,,,0.00,VWS V14.01,2013-08-31 16:36:00,
2013-08-31 10:41:00,63.3,7.9,24.51,SSW,197,0.0,0.0,11,0.00,,,0.00,VWS V14.01,2013-08-31 16:41:00,
2013-08-31 10:46:00,64.2,8.6,24.51,South,179,0.0,0.0,11,0.00,,,0.00,VWS V14.01,2013-08-31 16:46:00,
2013-08-31 10:51:00,65.1,7.2,24.51,South,191,0.0,0.0,10,0.00,,,0.00,VWS V14.01,2013-08-31 16:51:00,
2013-08-31 10:56:00,65.5,7.5,24.51,SSW,200,0.0,0.0,10,0.00,,,0.00,VWS V14.01,2013-08-31 16:56:00,
2013-08-31 11:01:00,66.0,7.9,24.51,South,188,0.0,0.0,10,0.00,,,0.00,VWS V14.01,2013-08-31 17:01:00,
2013-08-31 11:06:00,66.7,8.5,24.51,South,179,0.0,0.0,10,0.00,,,0.00,VWS V14.01,2013-08-31 17:06:00,
2013-08-31 11:11:00,67.1,8.7,24.51,SSE,158,0.0,0.0,10,0.00,,,0.00,VWS V14.01,2013-08-31 17:11:00,
2013-08-31 11:16:00,66.9,8.6,24.51,SE,138,0.0,0.0,10,0.00,,,0.00,VWS V14.01,2013-08-31 17:16:00,
2013-08-31 11:21:00,66.6,8.3,24.48,SSE,151,0.0,0.0,10,0.00,,,0.00,VWS V14.01,2013-08-31 17:21:00,
2013-08-31 11:26:00,66.7,8.5,24.48,SE,140,0.0,0.0,10,0.00,,,0.00,VWS V14.01,2013-08-31 17:26:00,
2013-08-31 11:31:00,66.4,8.2,24.48,SE,140,0.0,0.0,10,0.00,,,0.00,VWS V14.01,2013-08-31 17:31:00,
2013-08-31 11:36:00,66.7,8.5,24.51,SSE,153,0.0,0.0,10,0.00,,,0.00,VWS V14.01,2013-08-31 17:36:00,
2013-08-31 11:41:00,67.1,8.7,24.51,SE,135,0.0,0.0,10,0.00,,,0.00,VWS V14.01,2013-08-31 17:41:00,
2013-08-31 11:46:00,67.6,9.1,24.51,ESE,113,0.0,0.0,10,0.00,,,0.00,VWS V14.01,2013-08-31 17:46:00,
2013-08-31 11:51:00,68.7,10.0,24.51,SE,133,0.0,0.0,10,0.00,,,0.00,VWS V14.01,2013-08-31 17:51:00,
2013-08-31 11:56:00,69.3,10.4,24.51,SE,143,0.0,0.0,10,0.00,,,0.00,VWS V14.01,2013-08-31 17:56:00,
2013-08-31 12:01:00,69.6,10.7,24.51,ESE,121,0.0,0.0,10,0.00,,,0.00,VWS V14.01,2013-08-31 18:01:00,
2013-08-31 12:06:00,70.0,8.6,24.48,SE,138,0.0,0.0,9,0.00,,,0.00,VWS V14.01,2013-08-31 18:06:00,
2013-08-31 12:11:00,70.3,8.9,24.48,East,100,0.0,0.0,9,0.00,,,0.00,VWS V14.01,2013-08-31 18:11:00,
2013-08-31 12:16:00,70.9,9.3,24.48,ESE,118,0.0,0.0,9,0.00,,,0.00,VWS V14.01,2013-08-31 18:16:00,
2013-08-31 12:21:00,71.8,10.0,24.48,SE,127,0.0,0.0,9,0.00,,,0.00,VWS V14.01,2013-08-31 18:21:00,
2013-08-31 12:26:00,71.8,10.0,24.48,East,99,0.0,0.0,9,0.00,,,0.00,VWS V14.01,2013-08-31 18:26:00,
2013-08-31 12:31:00,72.1,10.2,24.48,East,81,0.0,0.0,9,0.00,,,0.00,VWS V14.01,2013-08-31 18:31:00,
2013-08-31 12:36:00,72.7,10.6,24.51,SSE,155,0.0,0.0,9,0.00,,,0.00,VWS V14.01,2013-08-31 18:36:00,
2013-08-31 12:41:00,72.3,10.4,24.51,SE,141,0.0,0.0,9,0.00,,,0.00,VWS V14.01,2013-08-31 18:41:00,
2013-08-31 12:46:00,72.1,10.2,24.51,SE,146,0.0,0.0,9,0.00,,,0.00,VWS V14.01,2013-08-31 18:46:00,
2013-08-31 12:51:00,72.5,10.5,24.48,SE,129,0.0,0.0,9,0.00,,,0.00,VWS V14.01,2013-08-31 18:51:00,
2013-08-31 12:56:00,73.2,11.1,24.48,SE,131,0.0,0.0,9,0.00,,,0.00,VWS V14.01,2013-08-31 18:56:00,
2013-08-31 13:01:00,73.8,8.8,24.48,ESE,119,0.0,0.0,8,0.00,,,0.00,VWS V14.01,2013-08-31 19:01:00,
2013-08-31 13:06:00,74.1,9.1,24.51,South,176,0.0,0.0,8,0.00,,,0.00,VWS V14.01,2013-08-31 19:06:00,
2013-08-31 13:11:00,74.3,9.2,24.51,ESE,114,0.0,0.0,8,0.00,,,0.00,VWS V14.01,2013-08-31 19:11:00,
2013-08-31 13:16:00,74.5,9.4,24.51,ESE,112,0.0,0.0,8,0.00,,,0.00,VWS V14.01,2013-08-31 19:16:00,
2013-08-31 13:21:00,74.3,9.2,24.48,SSE,160,0.0,0.0,8,0.00,,,0.00,VWS V14.01,2013-08-31 19:21:00,
2013-08-31 13:26:00,74.3,9.2,24.48,ESE,108,0.0,0.0,8,0.00,,,0.00,VWS V14.01,2013-08-31 19:26:00,
2013-08-31 13:31:00,74.7,9.5,24.48,SE,146,0.0,0.0,8,0.00,,,0.00,VWS V14.01,2013-08-31 19:31:00,
2013-08-31 13:36:00,74.8,9.6,24.48,SE,137,0.0,0.0,8,0.00,,,0.00,VWS V14.01,2013-08-31 19:36:00,
2013-08-31 13:41:00,74.7,9.5,24.48,SSE,161,0.0,0.0,8,0.00,,,0.00,VWS V14.01,2013-08-31 19:41:00,
2013-08-31 13:46:00,74.7,9.5,24.48,SSE,150,0.0,0.0,8,0.00,,,0.00,VWS V14.01,2013-08-31 19:46:00,
2013-08-31 13:51:00,75.4,10.0,24.51,ENE,77,0.0,0.0,8,0.00,,,0.00,VWS V14.01,2013-08-31 19:51:00,
2013-08-31 13:56:00,75.0,9.8,24.51,ENE,78,0.0,0.0,8,0.00,,,0.00,VWS V14.01,2013-08-31 19:56:00,
2013-08-31 14:01:00,76.1,10.6,24.51,NE,51,0.0,0.0,8,0.00,,,0.00,VWS V14.01,2013-08-31 20:01:00,
2013-08-31 14:06:00,73.4,8.6,24.51,NNE,32,0.0,0.0,8,0.00,,,0.00,VWS V14.01,2013-08-31 20:06:00,
2013-08-31 14:11:00,72.9,10.8,24.51,ENE,65,0.0,0.0,9,0.00,,,0.00,VWS V14.01,2013-08-31 20:11:00,
2013-08-31 14:16:00,73.0,10.9,24.51,NE,42,0.0,0.0,9,0.00,,,0.00,VWS V14.01,2013-08-31 20:16:00,
2013-08-31 14:21:00,74.3,9.2,24.51,ENE,58,0.0,0.0,8,0.00,,,0.00,VWS V14.01,2013-08-31 20:21:00,
2013-08-31 14:26:00,75.4,10.0,24.51,SE,125,0.0,0.0,8,0.00,,,0.00,VWS V14.01,2013-08-31 20:26:00,
2013-08-31 14:31:00,76.1,10.6,24.51,NE,40,0.0,0.0,8,0.00,,,0.00,VWS V14.01,2013-08-31 20:31:00,
2013-08-31 14:36:00,76.3,10.7,24.51,East,99,0.0,0.0,8,0.00,,,0.00,VWS V14.01,2013-08-31 20:36:00,
2013-08-31 14:41:00,76.3,10.7,24.51,SE,145,0.0,0.0,8,0.00,,,0.00,VWS V14.01,2013-08-31 20:41:00,
2013-08-31 14:46:00,75.4,10.0,24.51,East,95,0.0,0.0,8,0.00,,,0.00,VWS V14.01,2013-08-31 20:46:00,
2013-08-31 14:51:00,75.2,9.9,24.51,ENE,61,0.0,0.0,8,0.00,,,0.00,VWS V14.01,2013-08-31 20:51:00,
2013-08-31 14:56:00,75.0,9.8,24.51,ESE,115,0.0,0.0,8,0.00,,,0.00,VWS V14.01,2013-08-31 20:56:00,
2013-08-31 15:01:00,75.9,10.4,24.51,ENE,71,0.0,0.0,8,0.00,,,0.00,VWS V14.01,2013-08-31 21:01:00,
2013-08-31 15:06:00,75.6,10.2,24.48,East,84,0.0,0.0,8,0.00,,,0.00,VWS V14.01,2013-08-31 21:06:00,
2013-08-31 15:11:00,75.0,9.8,24.48,ENE,68,0.0,0.0,8,0.00,,,0.00,VWS V14.01,2013-08-31 21:11:00,
2013-08-31 15:16:00,75.7,10.3,24.48,East,87,0.0,0.0,8,0.00,,,0.00,VWS V14.01,2013-08-31 21:16:00,
2013-08-31 15:21:00,75.4,10.0,24.48,East,87,0.0,0.0,8,0.00,,,0.00,VWS V14.01,2013-08-31 21:21:00,
2013-08-31 15:26:00,75.6,10.2,24.48,ESE,111,0.0,0.0,8,0.00,,,0.00,VWS V14.01,2013-08-31 21:26:00,
2013-08-31 15:31:00,74.7,9.5,24.48,ESE,113,0.0,0.0,8,0.00,,,0.00,VWS V14.01,2013-08-31 21:31:00,
2013-08-31 15:36:00,74.5,9.4,24.48,ESE,112,0.0,0.0,8,0.00,,,0.00,VWS V14.01,2013-08-31 21:36:00,
2013-08-31 15:41:00,74.3,9.2,24.48,ENE,72,0.0,0.0,8,0.00,,,0.00,VWS V14.01,2013-08-31 21:41:00,
2013-08-31 15:46:00,74.5,9.4,24.48,ENE,71,0.0,0.0,8,0.00,,,0.00,VWS V14.01,2013-08-31 21:46:00,
2013-08-31 15:51:00,74.3,9.2,24.51,East,99,0.0,0.0,8,0.00,,,0.00,VWS V14.01,2013-08-31 21:51:00,
2013-08-31 15:56:00,74.8,9.6,24.51,ESE,110,0.0,0.0,8,0.00,,,0.00,VWS V14.01,2013-08-31 21:56:00,
2013-08-31 16:01:00,75.0,9.8,24.51,ESE,122,0.0,0.0,8,0.00,,,0.00,VWS V14.01,2013-08-31 22:01:00,
2013-08-31 16:06:00,74.8,9.6,24.51,NE,45,0.0,0.0,8,0.00,,,0.00,VWS V14.01,2013-08-31 22:06:00,
2013-08-31 16:11:00,75.0,9.8,24.51,East,96,0.0,0.0,8,0.00,,,0.00,VWS V14.01,2013-08-31 22:11:00,
2013-08-31 16:16:00,73.2,11.1,24.51,ENE,57,0.0,0.0,9,0.00,,,0.00,VWS V14.01,2013-08-31 22:16:00,
2013-08-31 16:21:00,73.9,9.0,24.51,ESE,109,0.0,0.0,8,0.00,,,0.00,VWS V14.01,2013-08-31 22:21:00,
2013-08-31 16:26:00,74.3,9.2,24.51,ESE,108,0.0,0.0,8,0.00,,,0.00,VWS V14.01,2013-08-31 22:26:00,
2013-08-31 16:31:00,75.0,9.8,24.51,East,85,0.0,0.0,8,0.00,,,0.00,VWS V14.01,2013-08-31 22:31:00,
2013-08-31 16:36:00,75.4,10.0,24.51,SE,128,0.0,0.0,8,0.00,,,0.00,VWS V14.01,2013-08-31 22:36:00,
2013-08-31 16:41:00,75.2,9.9,24.51,ENE,67,0.0,0.0,8,0.00,,,0.00,VWS V14.01,2013-08-31 22:41:00,
2013-08-31 16:46:00,75.7,10.3,24.51,SE,126,0.0,0.0,8,0.00,,,0.00,VWS V14.01,2013-08-31 22:46:00,
2013-08-31 16:51:00,75.4,10.0,24.51,East,94,0.0,0.0,8,0.00,,,0.00,VWS V14.01,2013-08-31 22:51:00,
2013-08-31 16:56:00,75.9,10.4,24.51,ENE,69,0.0,0.0,8,0.00,,,0.00,VWS V14.01,2013-08-31 22:56:00,
2013-08-31 17:01:00,77.2,11.4,24.51,East,100,0.0,0.0,8,0.00,,,0.00,VWS V14.01,2013-08-31 23:01:00,
2013-08-31 17:06:00,78.3,12.2,24.51,ENE,75,0.0,0.0,8,0.00,,,0.00,VWS V14.01,2013-08-31 23:06:00,
2013-08-31 17:11:00,76.8,11.1,24.51,ENE,73,0.0,0.0,8,0.00,,,0.00,VWS V14.01,2013-08-31 23:11:00,
2013-08-31 17:16:00,77.7,11.8,24.51,ENE,70,0.0,0.0,8,0.00,,,0.00,VWS V14.01,2013-08-31 23:16:00,
2013-08-31 17:21:00,79.0,9.7,24.48,East,83,0.0,0.0,7,0.00,,,0.00,VWS V14.01,2013-08-31 23:21:00,
2013-08-31 17:26:00,77.7,11.8,24.48,ENE,65,0.0,0.0,8,0.00,,,0.00,VWS V14.01,2013-08-31 23:26:00,
2013-08-31 17:31:00,78.4,12.3,24.48,ESE,114,0.0,0.0,8,0.00,,,0.00,VWS V14.01,2013-08-31 23:31:00,
2013-08-31 17:36:00,78.8,9.6,24.48,ENE,75,0.0,0.0,7,0.00,,,0.00,VWS V14.01,2013-08-31 23:36:00,
2013-08-31 17:41:00,77.0,11.2,24.48,ESE,107,0.0,0.0,8,0.00,,,0.00,VWS V14.01,2013-08-31 23:41:00,
2013-08-31 17:46:00,77.9,11.9,24.48,ESE,102,0.0,0.0,8,0.00,,,0.00,VWS V14.01,2013-08-31 23:46:00,
2013-08-31 17:51:00,77.0,11.2,24.51,ESE,103,0.0,0.0,8,0.00,,,0.00,VWS V14.01,2013-08-31 23:51:00,
2013-08-31 17:56:00,76.5,10.8,24.51,ESE,109,0.0,0.0,8,0.00,,,0.00,VWS V14.01,2013-08-31 23:56:00,
2013-08-31 18:01:00,76.3,10.7,24.51,ESE,106,0.0,0.0,8,0.00,,,0.00,VWS V14.01,2013-09-01 00:01:00,
2013-08-31 18:06:00,75.2,9.9,24.48,East,95,0.0,0.0,8,0.00,,,0.00,VWS V14.01,2013-09-01 00:06:00,
2013-08-31 18:11:00,74.5,9.4,24.48,East,85,0.0,0.0,8,0.00,,,0.00,VWS V14.01,2013-09-01 00:11:00,
2013-08-31 18:16:00,75.9,10.4,24.48,East,93,0.0,0.0,8,0.00,,,0.00,VWS V14.01,2013-09-01 00:16:00,
2013-08-31 18:21:00,75.7,10.3,24.48,NE,41,0.0,0.0,8,0.00,,,0.00,VWS V14.01,2013-09-01 00:21:00,
2013-08-31 18:26:00,77.4,11.5,24.48,ESE,108,0.0,0.0,8,0.00,,,0.00,VWS V14.01,2013-09-01 00:26:00,
2013-08-31 18:31:00,75.7,10.3,24.48,East,91,0.0,0.0,8,0.00,,,0.00,VWS V14.01,2013-09-01 00:31:00,
2013-08-31 18:36:00,75.4,10.0,24.48,East,82,0.0,0.0,8,0.00,,,0.00,VWS V14.01,2013-09-01 00:36:00,
2013-08-31 18:41:00,74.5,9.4,24.48,East,82,0.0,0.0,8,0.00,,,0.00,VWS V14.01,2013-09-01 00:41:00,
2013-08-31 18:46:00,73.0,10.9,24.48,East,82,0.0,0.0,9,0.00,,,0.00,VWS V14.01,2013-09-01 00:46:00,
2013-08-31 18:51:00,71.2,9.6,24.48,ENE,75,0.0,0.0,9,0.00,,,0.00,VWS V14.01,2013-09-01 00:51:00,
2013-08-31 18:56:00,70.0,8.6,24.48,East,99,0.0,0.0,9,0.00,,,0.00,VWS V14.01,2013-09-01 00:56:00,
2013-08-31 19:01:00,69.3,10.4,24.48,ESE,111,0.0,0.0,10,0.00,,,0.00,VWS V14.01,2013-09-01 01:01:00,
2013-08-31 19:06:00,68.7,10.0,24.48,East,89,0.0,0.0,10,0.00,,,0.00,VWS V14.01,2013-09-01 01:06:00,
2013-08-31 19:11:00,69.1,10.3,24.48,ESE,114,0.0,0.0,10,0.00,,,0.00,VWS V14.01,2013-09-01 01:11:00,
2013-08-31 19:16:00,70.2,8.7,24.48,East,87,0.0,0.0,9,0.00,,,0.00,VWS V14.01,2013-09-01 01:16:00,
2013-08-31 19:21:00,70.9,9.3,24.48,East,81,0.0,0.0,9,0.00,,,0.00,VWS V14.01,2013-09-01 01:21:00,
2013-08-31 19:26:00,70.7,9.1,24.48,East,86,0.0,0.0,9,0.00,,,0.00,VWS V14.01,2013-09-01 01:26:00,
2013-08-31 19:31:00,72.1,10.2,24.48,ESE,119,0.0,0.0,9,0.00,,,0.00,VWS V14.01,2013-09-01 01:31:00,
2013-08-31 19:36:00,72.5,10.5,24.45,ESE,117,0.0,0.0,9,0.00,,,0.00,VWS V14.01,2013-09-01 01:36:00,
2013-08-31 19:41:00,69.6,10.7,24.45,SSE,160,0.0,0.0,10,0.00,,,0.00,VWS V14.01,2013-09-01 01:41:00,
2013-08-31 19:46:00,67.3,8.9,24.45,ENE,75,0.0,0.0,10,0.00,,,0.00,VWS V14.01,2013-09-01 01:46:00,
2013-08-31 19:51:00,66.0,7.9,24.48,East,88,0.0,0.0,10,0.00,,,0.00,VWS V14.01,2013-09-01 01:51:00,
2013-08-31 19:56:00,65.5,7.5,24.48,ESE,123,0.0,0.0,10,0.00,,,0.00,VWS V14.01,2013-09-01 01:56:00,
2013-08-31 20:01:00,64.8,6.9,24.48,SE,128,0.0,0.0,10,0.00,,,0.00,VWS V14.01,2013-09-01 02:01:00,
2013-08-31 20:06:00,64.4,6.7,24.51,East,100,0.0,0.0,10,0.00,,,0.00,VWS V14.01,2013-09-01 02:06:00,
2013-08-31 20:11:00,64.0,12.2,24.51,ESE,114,0.0,0.0,13,0.00,,,0.00,VWS V14.01,2013-09-01 02:11:00,
2013-08-31 20:16:00,63.5,11.8,24.51,ESE,113,0.0,0.0,13,0.00,,,0.00,VWS V14.01,2013-09-01 02:16:00,
2013-08-31 20:21:00,63.0,11.4,24.48,SSE,157,0.0,0.0,13,0.00,,,0.00,VWS V14.01,2013-09-01 02:21:00,
2013-08-31 20:26:00,62.6,15.8,24.48,ESE,111,0.0,0.0,16,0.00,,,0.00,VWS V14.01,2013-09-01 02:26:00,
2013-08-31 20:31:00,62.6,15.8,24.48,SE,126,0.0,0.0,16,0.00,,,0.00,VWS V14.01,2013-09-01 02:31:00,
2013-08-31 20:36:00,62.4,15.7,24.48,SSE,149,0.0,0.0,16,0.00,,,0.00,VWS V14.01,2013-09-01 02:36:00,
2013-08-31 20:41:00,62.4,15.7,24.48,ESE,105,0.0,0.0,16,0.00,,,0.00,VWS V14.01,2013-09-01 02:41:00,
2013-08-31 20:46:00,62.1,15.4,24.48,ESE,102,0.0,0.0,16,0.00,,,0.00,VWS V14.01,2013-09-01 02:46:00,
2013-08-31 20:51:00,61.9,19.2,24.48,ENE,63,0.0,0.0,19,0.00,,,0.00,VWS V14.01,2013-09-01 02:51:00,
2013-08-31 20:56:00,61.7,15.1,24.48,North,357,0.0,0.0,16,0.00,,,0.00,VWS V14.01,2013-09-01 02:56:00,
2013-08-31 21:01:00,60.6,15.6,24.48,North,0,0.0,0.0,17,0.00,,,0.00,VWS V14.01,2013-09-01 03:01:00,
2013-08-31 21:06:00,59.7,17.4,24.51,North,5,0.0,0.0,19,0.00,,,0.00,VWS V14.01,2013-09-01 03:06:00,
2013-08-31 21:11:00,58.3,22.6,24.51,NNW,341,0.0,0.0,25,0.00,,,0.00,VWS V14.01,2013-09-01 03:11:00,
2013-08-31 21:16:00,57.6,22.0,24.51,NNW,338,0.0,0.0,25,0.00,,,0.00,VWS V14.01,2013-09-01 03:16:00,
2013-08-31 21:21:00,56.8,23.2,24.51,North,9,0.0,0.0,27,0.00,,,0.00,VWS V14.01,2013-09-01 03:21:00,
2013-08-31 21:26:00,56.7,23.1,24.51,North,8,0.0,0.0,27,0.00,,,0.00,VWS V14.01,2013-09-01 03:26:00,
2013-08-31 21:31:00,56.1,23.5,24.51,NNW,345,0.0,0.0,28,0.00,,,0.00,VWS V14.01,2013-09-01 03:31:00,
2013-08-31 21:36:00,55.4,24.5,24.48,North,1,0.0,0.0,30,0.00,,,0.00,VWS V14.01,2013-09-01 03:36:00,
2013-08-31 21:41:00,54.7,25.4,24.48,North,1,0.0,0.0,32,0.00,,,0.00,VWS V14.01,2013-09-01 03:41:00,
2013-08-31 21:46:00,54.3,27.3,24.48,NNW,343,0.0,0.0,35,0.00,,,0.00,VWS V14.01,2013-09-01 03:46:00,
2013-08-31 21:51:00,54.3,27.3,24.48,NNW,331,0.0,0.0,35,0.00,,,0.00,VWS V14.01,2013-09-01 03:51:00,
2013-08-31 21:56:00,54.3,27.3,24.48,NNE,29,0.0,0.0,35,0.00,,,0.00,VWS V14.01,2013-09-01 03:56:00,
2013-08-31 22:01:00,56.1,24.3,24.48,ESE,108,0.0,0.0,29,0.00,,,0.00,VWS V14.01,2013-09-01 04:01:00,
2013-08-31 22:03:00,56.3,24.5,24.51,ENE,63,0.0,0.0,29,0.00,,,0.00,VWS V14.01,2013-09-01 04:03:00,
2013-08-31 22:08:00,57.2,22.6,24.51,East,95,0.0,0.0,26,0.00,,,0.00,VWS V14.01,2013-09-01 04:08:00,
2013-08-31 22:13:00,57.6,23.0,24.51,East,96,0.0,0.0,26,0.00,,,0.00,VWS V14.01,2013-09-01 04:13:00,
2013-08-31 22:18:00,57.4,22.8,24.51,North,353,0.0,0.0,26,0.00,,,0.00,VWS V14.01,2013-09-01 04:18:00,
2013-08-31 22:23:00,56.7,23.1,24.51,North,0,0.0,0.0,27,0.00,,,0.00,VWS V14.01,2013-09-01 04:23:00,
2013-08-31 22:28:00,56.1,23.5,24.51,North,353,0.0,0.0,28,0.00,,,0.00,VWS V14.01,2013-09-01 04:28:00,
2013-08-31 22:33:00,55.0,23.4,24.48,North,353,0.0,0.0,29,0.00,,,0.00,VWS V14.01,2013-09-01 04:33:00,
2013-08-31 22:38:00,54.5,23.7,24.48,North,353,0.0,0.0,30,0.00,,,0.00,VWS V14.01,2013-09-01 04:38:00,
2013-08-31 22:43:00,53.6,26.6,24.48,North,0,0.0,0.0,35,0.00,,,0.00,VWS V14.01,2013-09-01 04:43:00,
2013-08-31 22:48:00,53.1,26.8,24.48,NNE,25,0.0,0.0,36,0.00,,,0.00,VWS V14.01,2013-09-01 04:48:00,
2013-08-31 22:53:00,53.1,26.8,24.48,North,357,0.0,0.0,36,0.00,,,0.00,VWS V14.01,2013-09-01 04:53:00,
2013-08-31 22:58:00,52.5,26.4,24.48,North,357,0.0,0.0,36,0.00,,,0.00,VWS V14.01,2013-09-01 04:58:00,
2013-08-31 23:03:00,51.8,25.7,24.48,North,357,0.0,0.0,36,0.00,,,0.00,VWS V14.01,2013-09-01 05:03:00,
2013-08-31 23:08:00,50.9,25.6,24.48,NNE,13,0.0,0.0,37,0.00,,,0.00,VWS V14.01,2013-09-01 05:08:00,
2013-08-31 23:13:00,50.2,26.2,24.48,NNW,337,0.0,0.0,39,0.00,,,0.00,VWS V14.01,2013-09-01 05:13:00,
2013-08-31 23:18:00,50.0,27.2,24.48,NNW,339,0.0,0.0,41,0.00,,,0.00,VWS V14.01,2013-09-01 05:18:00,
2013-08-31 23:22:00,49.5,26.8,24.48,NNW,339,0.0,0.0,41,0.00,,,0.00,VWS V14.01,2013-09-01 05:22:00,
2013-08-31 23:28:00,48.6,27.1,24.48,North,0,0.0,0.0,43,0.00,,,0.00,VWS V14.01,2013-09-01 05:28:00,
2013-08-31 23:33:00,48.2,27.3,24.48,North,0,0.0,0.0,44,0.00,,,0.00,VWS V14.01,2013-09-01 05:33:00,
2013-08-31 23:38:00,47.8,28.6,24.48,North,357,0.0,0.0,47,0.00,,,0.00,VWS V14.01,2013-09-01 05:38:00,
2013-08-31 23:43:00,47.5,28.8,24.48,North,0,0.0,0.0,48,0.00,,,0.00,VWS V14.01,2013-09-01 05:43:00,
2013-08-31 23:48:00,47.1,28.5,24.45,North,0,0.0,0.0,48,0.00,,,0.00,VWS V14.01,2013-09-01 05:48:00,
2013-08-31 23:53:00,46.6,28.5,24.45,North,0,0.0,0.0,49,0.00,,,0.00,VWS V14.01,2013-09-01 05:53:00,
2013-08-31 23:58:00,46.4,29.3,24.45,North,0,0.0,0.0,51,0.00,,,0.00,VWS V14.01,2013-09-01 05:58:00,